User: anonymous   Login
Location: Unspecified
(0.0000°N, 0.0000°E)
Time: 14:53:44
(UTC+02:00)
Language:

Delta 168 - Orbit

View from above orbital plane
View from above orbital plane
View from above satellite
View from above satellite

Ground track
Ground track

The orbit data is extracted from the following two-line orbital elements,

1 14051U 83041B   15244.46923421  .00002178  00000-0  19001-3 0  9996
2 14051  25.3430   7.7835 1109880 280.6966 133.6657 13.05593412492698
Epoch (UTC): 01 September 2015 11:15:41
Eccentricity: 0.1109880
inclination: 25.3430°
perigee height: 395 km
apogee height: 2086 km
right ascension of ascending node: 7.7835°
argument of perigee: 280.6966°
revolutions per day: 13.05593412
mean anomaly at epoch: 133.6657°
orbit number at epoch: 49269

The dashed part of the orbit path shows where the satellite is in the earth's shadow,  

DLR